Mount Ida, AR

6:08 AM CDT on September 26, 2017 (GMT -0500)
Mount Ida

Weather History for KMWT - December, 2012

Change the Weather History Date:

Wednesday, December 12, 2012

  Actual Average (KHOT) Record (KHOT)
Temperature  
Mean Temperature 36 °F -  
Max Temperature 53 °F 52 °F 79 °F (1948)
Min Temperature 19 °F 32 °F 7 °F (1962)
Degree Days  
Heating Degree Days 29    
Moisture  
Dew Point 19 °F    
Average Humidity 66    
Maximum Humidity 96    
Minimum Humidity 20    
Precipitation  
Precipitation 0.00 in - - ()
Sea Level Pressure  
Sea Level Pressure 30.31 in    
Wind  
Wind Speed 1 mph (SSE)    
Max Wind Speed 7 mph    
Max Gust Speed -    
Visibility 10 miles    
Events      
Averages and records for this station are not official NWS values.
T = Trace of Precipitation, MM = Missing Value Source: NWS Daily Summary

Daily Weather History Graph

Daily Weather History Graph

Search for Another Location

Airport or City:

Trip Planner

Search our weather history database for the weather conditions in past years. The results will help you decide how hot, cold, wet, or windy it might be!

Date:

Astronomy

Dec. 12, 2012 Rise Set
Actual Time 7:12 AM CST 5:04 PM CST
Civil Twilight 6:44 AM CST 5:32 PM CST
Nautical Twilight 6:12 AM CST 6:03 PM CST
Astronomical Twilight 5:42 AM CST 6:34 PM CST
Moon 6:17 AM CST (12/12) 4:41 PM CST (12/12)
Length of Visible Light 10h 48m
Length of Day
9h 52m
Waning Crescent, 1% of the Moon is Illuminated
Dec 12
Waning Crescent
Dec 13
New
Dec 19
First Quarter
Dec 28
Full
Jan 4
Last Quarter

Hourly Weather History & Observations

Time (CST) Temp. Dew Point Humidity Pressure Visibility Wind Dir Wind Speed Gust Speed Precip Events Conditions
12:53 AM 23.0 °F 21.0 °F 92% 30.27 in 10.0 mi Calm Calm - N/A   Clear
1:53 AM 21.9 °F 19.0 °F 89% 30.26 in 10.0 mi Calm Calm - N/A   Clear
2:53 AM 21.0 °F 18.0 °F 88% 30.27 in 10.0 mi Calm Calm - N/A   Clear
3:53 AM 19.9 °F 19.0 °F 96% 30.29 in 10.0 mi Calm Calm - N/A   Clear
4:53 AM 19.9 °F 18.0 °F 92% 30.29 in 10.0 mi Calm Calm - N/A   Clear
5:53 AM 19.0 °F 17.1 °F 92% 30.32 in 10.0 mi Calm Calm - N/A   Clear
6:53 AM 19.0 °F 17.1 °F 92% 30.34 in 10.0 mi Calm Calm - N/A   Clear
7:53 AM 19.0 °F 18.0 °F 96% 30.37 in 10.0 mi Calm Calm - N/A   Clear
8:53 AM 28.0 °F 24.1 °F 85% 30.38 in 10.0 mi Calm Calm - N/A   Clear
9:53 AM 34.0 °F 24.1 °F 67% 30.38 in 10.0 mi Calm Calm - N/A   Clear
10:53 AM 43.0 °F 24.1 °F 47% 30.35 in 10.0 mi Calm Calm - N/A   Clear
11:53 AM 48.9 °F 23.0 °F 36% 30.32 in 10.0 mi Variable 3.5 mph - N/A   Clear
12:53 PM 53.1 °F 12.9 °F 20% 30.29 in 10.0 mi Variable 4.6 mph - N/A   Clear
1:53 PM 52.0 °F 12.0 °F 20% 30.29 in 10.0 mi Variable 6.9 mph - N/A   Clear
2:53 PM 52.0 °F 14.0 °F 22% 30.28 in 10.0 mi Variable 4.6 mph - N/A   Clear
3:53 PM 51.1 °F 12.9 °F 22% 30.28 in 10.0 mi Variable 3.5 mph - N/A   Clear
4:53 PM 48.9 °F 15.1 °F 26% 30.28 in 10.0 mi SSE 3.5 mph - N/A   Clear
5:53 PM 39.9 °F 19.0 °F 43% 30.29 in 10.0 mi Calm Calm - N/A   Clear
6:53 PM 37.0 °F 19.9 °F 50% 30.30 in 10.0 mi Calm Calm - N/A   Clear
7:53 PM 30.9 °F 23.0 °F 72% 30.31 in 10.0 mi Calm Calm - N/A   Clear
8:53 PM 28.9 °F 21.9 °F 75% 30.32 in 10.0 mi Calm Calm - N/A   Clear
9:53 PM 27.0 °F 23.0 °F 85% 30.32 in 10.0 mi Calm Calm - N/A   Clear
10:53 PM 26.1 °F 21.0 °F 81% 30.34 in 10.0 mi Calm Calm - N/A   Clear
11:53 PM 25.0 °F 21.0 °F 85% 30.33 in 10.0 mi Calm Calm - N/A   Clear